星链-35736(STARLINK-35736)

导读

STARLINK-35736是美国SpaceX公司星链(Starlink)卫星互联网项目中的一颗通信卫星,于2025年10月28日成功发射入轨。它隶属于星链大规模低轨卫星星座组网计划,旨在为全球偏远地区及网络覆盖不足区域提供低延迟、高速率的宽带互联网服务,进一步完善星链星座的全球覆盖能力,推动卫星互联网服务的普及与扩展。

基本信息
目录编号:
66230
目录名称:
STARLINK-35736
国际标识:
2025-244AA
轨道中心:
EARTH
卫星名称:
星链-35736
卫星全名:
星链-35736(STARLINK-35736)
卫星状态:
在轨 (已飞行312 天)
发射日期:
2025-10-28 UTC
国别 :
美国 (US)
星等 :
--
轨道信息
数据来源 国际轨道数据
星历时间: 2026-09-04T09:42:28+0800
1天前
查看轨道信息
半长轴: 6840.752km
偏心率: 0.0001324
轨道倾角: 53.159°
近地点辐角 96.709°
升交点赤经 120.417°
平近点角 263.406°
近地点: 461.709km
远地点: 463.521km
周期: 93.846分钟
每日圈数: 15.344298
详细信息
固有亮度:
5
最大亮度:
2.5
卫星平台:
Starlink V1.0
覆盖范围:
全球
运营商:
太空探索技术公司
运营商所在国:
美国
制造商(研发单位):
太空探索技术公司
制造商所在国:
美国
使用方式:
暂无
卫星简介
Starlink 计划是 SpaceX 推出的全球卫星互联网项目,通过发射低轨道卫星,为全球尤其是偏远地区提供高速、低延迟的互联网服务。自 2019 年起,Starlink 已部署数千颗卫星,旨在缩小全球数字鸿沟,推动互联网普及。该项目还为军事、航空等行业提供通信支持,带来广泛经济效益。
2D轨道图
3D轨道图
轨道高度分析图
轨道倾角分析图
轨道综合分析图
查看轨道综合分析图
交会数据列表
事件ID 空间交会对象 最接近时刻(TCA) 交会距离 交会风险概率(CRP) 交会风险指数(CRI) 操作
CDM_260906-092905-920406-623021
2026-09-06T
09:29:06+0000
0.554 km
远距离
1.043778E-4 高风险 0.75
CDM_260907-024306-207506-623021
2026-09-07T
02:43:13+0000
0.565 km
远距离
7.743127E-5 中风险 0.73
CDM_260906-193805-920406-623021
2026-09-06T
19:38:45+0000
1.166 km
极远距离
9.726541E-6 低风险 0.55
CDM_260903-000105-248906-623021
2026-09-03T
00:01:04+0000
2.489 km
极远距离
1.547302E-6 低风险 0.39
CDM_260906-211205-920406-623021
2026-09-06T
21:12:33+0000
2.269 km
极远距离
1.39512E-6 低风险 0.38
CDM_260906-025205-187406-623021
2026-09-06T
02:52:34+0000
2.679 km
极远距离
1.386712E-6 低风险 0.38
CDM_260907-083405-187006-623021
2026-09-07T
08:34:30+0000
2.738 km
极远距离
1.342033E-6 低风险 0.38
CDM_260907-072505-315606-623021
2026-09-07T
07:25:15+0000
2.114 km
极远距离
1.167094E-6 低风险 0.36
CDM_260906-173905-179206-623021
2026-09-06T
17:39:03+0000
2.970 km
极远距离
1.164265E-6 低风险 0.36
CDM_260906-110205-920406-623021
2026-09-06T
11:02:54+0000
2.651 km
极远距离
1.060263E-6 低风险 0.36